Location: Altmatt
(47.1333°N, 8.7000°E)
Time: 18:03:06
(UTC+00:00)

Landsat 7 - Pass Details

Date: 13 July 2020
Orbit: 701 x 703 km, 98.1° (Epoch: 13 August)

Event Time Altitude Azimuth Distance (km) Brightness Sun altitude
Exits shadow 20:32:02 10° 168° (SSE) 2,198 5.8 -10.3°
Reaches altitude 10° 20:32:07 10° 168° (SSE) 2,165 5.8 -10.3°
Maximum altitude 20:36:52 83° 256° (WSW) 715 3.9 -10.8°
Drops below altitude 10° 20:41:40 10° 345° (NNW) 2,181 7.5 -11.3°
Sets 20:43:56 0° 346° (NNW) 3,103 8.4 -11.6°
